Regional Weather Roundup
Issued by NWS

Home | Current Version | Previous Version | Graphics & Text | Print | Product List | Glossary On
Versions: 1 2 3 4 5 6 7 8 9 10 11 12 13 14 15 16 17 18 19 20 21 22 23 24 25 26 27 28 29 30 31 32 33 34 35 36 37 38 39 40 41 42 43 44 45 46 47 48 49 50
000
ASUS43 KBIS 281610
RWRND

NORTH DAKOTA REGIONAL WEATHER ROUNDUP
NATIONAL WEATHER SERVICE BISMARCK ND
1000 AM CST WED JAN 28 2015

NOTE: "FAIR" INDICATES FEW OR NO CLOUDS BELOW 12,000 FEET WITH NO
SIGNIFICANT WEATHER AND/OR OBSTRUCTIONS TO VISIBILITY.


NDZ001>003-009>011-017-281700-
NORTHWEST NORTH DAKOTA

CITY           SKY/WX    TMP DP  RH WIND       PRES   REMARKS
WILLISTON      CLOUDY    32  30  92 NW18G29   29.86R FOG
MINOT          FOG       29  28  96 NW8       29.79R VSB 1/4
MINOT AFB      FRZ DRZL  30  30 100 N7        29.80R VSB 1/2
$$

NDZ018>021-031>035-040>046-281700-
SOUTHWEST NORTH DAKOTA

CITY           SKY/WX    TMP DP  RH WIND       PRES   REMARKS
BISMARCK       PTSUNNY   33  31  92 W5        29.76R
DICKINSON      CLOUDY    43  30  60 W18       29.78R
GARRISON         N/A     28  27  96 N8        29.76R WCI  20
HETTINGER ARPT CLOUDY    45  31  58 W14       29.81R
$$

NDZ004>008-012>016-024-026-027-054-281700-
NORTHEAST NORTH DAKOTA

CITY           SKY/WX    TMP DP  RH WIND       PRES   REMARKS
GRAND FORKS    CLOUDY    33  32  96 S10       29.78F FOG
GRND FRKS AFB  FOG       32  32 100 S8        29.77F VSB 1/2
DEVILS LAKE    CLOUDY    30  30 100 CALM      29.74R
$$

NDZ022-023-025-028>030-036>039-047>053-281700-
SOUTHEAST NORTH DAKOTA

CITY           SKY/WX    TMP DP  RH WIND       PRES   REMARKS
FARGO          CLOUDY    34  31  88 S16G30    29.78F FOG
JAMESTOWN      FOG       30  30 100 S6        29.73R VSB 1/4
$$



USA.gov is the U.S. government's official web portal to all federal, state and local government web resources and services.